Location: Bergfeld
(52.0500°N, 11.7833°E)
Time: 04:26:35
(UTC+00:00)

SL-16 R/B - Pass Details

Date: 17 February 2020
Orbit: 842 x 846 km, 71.0° (Epoch: 09 April)

Event Time Altitude Azimuth Distance (km) Brightness Sun altitude
Exits shadow 04:54:21 - 323° (NW) 2,897 4.6 -14.6°
Reaches altitude 10° 04:56:58 10° 346° (NNW) 2,477 4.5 -14.2°
Maximum altitude 04:58:32 11° 2° (N) 2,402 4.6 -13.9°
Drops below altitude 10° 05:00:06 10° 18° (NNE) 2,478 4.8 -13.7°
Sets 05:04:49 0° 54° (NE) 3,414 6.2 -13.0°
